IRIDIUM 106 1 41917U 17003A 26209.11937822 .00000101 00000+0 28840-4 0 9992 2 41917 86.3926 71.4369 0002447 92.3590 267.7886 14.34218234499078 IRIDIUM 103 1 41918U 17003B 26209.10669199 .00000012 00000+0 -28220-5 0 9996 2 41918 86.3926 71.3422 0001902 90.9248 269.2166 14.34217579499098 IRIDIUM 109 1 41919U 17003C 26209.11303475 .00000243 00000+0 79620-4 0 9994 2 41919 86.3927 71.3996 0002124 86.8577 273.2862 14.34218668499067 IRIDIUM 102 1 41920U 17003D 26209.15109036 .00000149 00000+0 46275-4 0 9992 2 41920 86.3926 71.3066 0002219 85.6156 274.5293 14.34217951499157 IRIDIUM 105 1 41921U 17003E 26209.03991875 .00000085 00000+0 23258-4 0 9995 2 41921 86.3940 39.7806 0001959 84.5509 275.5910 14.34217248500995 IRIDIUM 104 1 41922U 17003F 26209.16377491 .00000018 00000+0 -46203-6 0 9996 2 41922 86.3927 71.3441 0001758 85.0262 275.1134 14.34217657499149 IRIDIUM 114 1 41923U 17003G 26209.10034959 .00000231 00000+0 75421-4 0 9998 2 41923 86.3929 71.3541 0002052 87.4993 272.6438 14.34218146499118 IRIDIUM 108 1 41924U 17003H 26209.05887138 -.00000006 00000+0 -91718-5 0 9998 2 41924 86.3932 39.6602 0002081 87.0706 273.0728 14.34217330500965 IRIDIUM 112 1 41925U 17003J 26209.15743312 .00000064 00000+0 15804-4 0 9998 2 41925 86.3922 71.1702 0002106 85.5117 274.6319 14.34217940499141 IRIDIUM 111 1 41926U 17003K 26209.14474817 .00000049 00000+0 10489-4 0 9996 2 41926 86.3925 71.2470 0002160 87.1581 272.9862 14.34217770499124 IRIDIUM 113 1 42803U 17039A 26209.19448118 .00000034 00000+0 50929-5 0 9998 2 42803 86.3992 305.0420 0002136 94.1182 266.0258 14.34217769477064 IRIDIUM 123 1 42804U 17039B 26209.09642225 .00000294 00000+0 97779-4 0 9994 2 42804 86.4008 336.5394 0002234 97.7058 262.4391 14.34218826475817 IRIDIUM 120 1 42805U 17039C 26209.18813970 -.00000020 00000+0 -14180-4 0 9996 2 42805 86.3977 304.8219 0002319 95.4347 264.7113 14.34217262477054 IRIDIUM 115 1 42806U 17039D 26209.02377781 .00000331 00000+0 92316-4 0 9995 2 42806 86.4517 305.0248 0002416 98.4418 261.7057 14.43284012480157 IRIDIUM 118 1 42807U 17039E 26209.05836823 -.00000028 00000+0 -17239-4 0 9992 2 42807 86.4005 336.5535 0002092 92.9471 267.1964 14.34217115475809 IRIDIUM 117 1 42808U 17039F 26209.07739519 .00000009 00000+0 -37755-5 0 9993 2 42808 86.4003 336.5028 0002089 95.1902 264.9532 14.34217467475834 IRIDIUM 126 1 42809U 17039G 26208.82369136 .00000002 00000+0 -65077-5 0 9991 2 42809 86.4006 336.6601 0002046 94.2668 265.8761 14.34217669475779 IRIDIUM 124 1 42810U 17039H 26209.16558073 .00000190 00000+0 50601-4 0 9994 2 42810 86.4469 273.2253 0002343 96.7070 263.4398 14.43277996481021 IRIDIUM 128 1 42811U 17039J 26208.67489281 .00000031 00000+0 38920-5 0 9999 2 42811 86.3975 8.2190 0002321 92.7447 267.4014 14.34217892475783 IRIDIUM 121 1 42812U 17039K 26209.05202503 .00000006 00000+0 -49306-5 0 9996 2 42812 86.4004 336.5931 0002143 92.7977 267.3464 14.34217535475689 IRIDIUM 133 1 42955U 17061A 26208.91591142 -.00000003 00000+0 -80392-5 0 9991 2 42955 86.3979 8.2373 0002118 92.1760 267.9678 14.34217388460612 IRIDIUM 100 1 42956U 17061B 26208.83979962 -.00000036 00000+0 -20078-4 0 9993 2 42956 86.3978 8.1868 0002102 91.4364 268.7073 14.34217414460602 IRIDIUM 122 1 42957U 17061C 26209.15692837 .00000232 00000+0 75611-4 0 9992 2 42957 86.3978 8.0541 0002116 93.0094 267.1344 14.34218080460652 IRIDIUM 129 1 42958U 17061D 26209.18230137 .00000221 00000+0 71995-4 0 9996 2 42958 86.3980 8.1110 0001998 88.3005 271.8420 14.34219507460679 IRIDIUM 119 1 42959U 17061E 26209.15058701 .00000276 00000+0 91442-4 0 9998 2 42959 86.3980 8.1203 0002093 93.1239 267.0196 14.34218392460682 IRIDIUM 107 1 42960U 17061F 26208.47192937 .00000041 00000+0 77153-5 0 9998 2 42960 86.3979 8.4256 0002098 97.9936 262.1498 14.34217660460592 IRIDIUM 132 1 42961U 17061G 26209.17595707 .00000192 00000+0 61647-4 0 9996 2 42961 86.3979 8.1102 0002173 92.2155 267.9289 14.34218518460690 IRIDIUM 136 1 42962U 17061H 26208.99836454 -.00000031 00000+0 -18038-4 0 9993 2 42962 86.3979 8.1916 0002116 90.7368 269.4070 14.34217353460680 IRIDIUM 139 1 42963U 17061J 26209.14423610 .00000191 00000+0 60972-4 0 9997 2 42963 86.3981 8.1930 0002251 91.4405 268.7049 14.34220923460719 IRIDIUM 125 1 42964U 17061K 26208.92225241 .00000193 00000+0 61950-4 0 9992 2 42964 86.3983 8.3477 0001890 104.3507 255.7899 14.34218185460698 IRIDIUM 135 1 43070U 17083A 26208.68707366 .00000177 00000+0 56269-4 0 9990 2 43070 86.3987 305.0882 0002181 95.7037 264.4408 14.34217728449954 IRIDIUM 138 1 43071U 17083B 26209.20082378 .00000295 00000+0 98443-4 0 9990 2 43071 86.3998 304.5752 0002069 96.4073 263.7358 14.34218108450018 IRIDIUM 116 1 43072U 17083C 26208.68073244 -.00000029 00000+0 -17452-4 0 9992 2 43072 86.3982 305.0764 0002428 94.7931 265.3543 14.34217317449972 IRIDIUM 130 1 43073U 17083D 26208.99786161 -.00000029 00000+0 -17319-4 0 9998 2 43073 86.3988 305.2229 0002376 99.0559 261.0906 14.34217296449964 IRIDIUM 151 1 43074U 17083E 26209.18179616 .00000126 00000+0 37850-4 0 9990 2 43074 86.3987 304.9256 0002284 94.8048 265.3409 14.34218061450018 IRIDIUM 134 1 43075U 17083F 26209.01054588 .00000009 00000+0 -39976-5 0 9996 2 43075 86.3986 305.0060 0002128 96.5454 263.5984 14.34217601449958 IRIDIUM 137 1 43076U 17083G 26209.02323225 .00000009 00000+0 -37752-5 0 9995 2 43076 86.3986 305.0941 0002473 87.7545 272.3934 14.34217549450027 IRIDIUM 141 1 43077U 17083H 26208.24943498 .00000225 00000+0 73306-4 0 9992 2 43077 86.3983 305.2455 0002166 95.2148 264.9295 14.34218060449911 IRIDIUM 153 1 43078U 17083J 26209.17837275 .00000038 00000+0 65805-5 0 9999 2 43078 86.3947 273.3336 0002167 96.6266 263.5177 14.34217734451152 IRIDIUM 131 1 43079U 17083K 26209.00420376 -.00000008 00000+0 -10066-4 0 9999 2 43079 86.3987 305.1190 0002117 93.8558 266.2880 14.34217406449959 IRIDIUM 144 1 43249U 18030A 26209.18471619 .00000128 00000+0 38724-4 0 9998 2 43249 86.3946 273.2592 0002415 94.6168 265.5304 14.34217826436013 IRIDIUM 149 1 43250U 18030B 26209.12129001 -.00000010 00000+0 -10785-4 0 9998 2 43250 86.3941 273.2517 0002148 94.2864 265.8578 14.34217308436021 IRIDIUM 157 1 43251U 18030C 26209.14031751 .00000004 00000+0 -55314-5 0 9995 2 43251 86.3943 273.2980 0002180 94.2442 265.9003 14.34217536436001 IRIDIUM 140 1 43252U 18030D 26209.15934549 -.00000020 00000+0 -14304-4 0 9996 2 43252 86.3944 273.3027 0002189 95.7076 264.4370 14.34217373436060 IRIDIUM 145 1 43253U 18030E 26209.14666102 -.00000006 00000+0 -91002-5 0 9998 2 43253 86.3943 273.2801 0002516 95.0706 265.0777 14.34217413435990 IRIDIUM 146 1 43254U 18030F 26209.19740135 .00000007 00000+0 -47179-5 0 9999 2 43254 86.3943 273.2708 0002288 94.3284 265.8173 14.34217567436018 IRIDIUM 148 1 43255U 18030G 26209.16568823 -.00000018 00000+0 -13384-4 0 9992 2 43255 86.3945 273.3280 0002200 92.0684 268.0764 14.34217383436040 IRIDIUM 142 1 43256U 18030H 26209.20374338 .00000113 00000+0 33426-4 0 9997 2 43256 86.3942 273.1998 0002434 93.3511 266.7964 14.34217297436012 IRIDIUM 150 1 43257U 18030J 26209.17203081 .00000260 00000+0 85692-4 0 9995 2 43257 86.3947 273.3306 0002329 95.8936 264.2525 14.34218287436032 IRIDIUM 143 1 43258U 18030K 26209.22277128 .00000013 00000+0 -23305-5 0 9996 2 43258 86.3947 273.4033 0002308 94.9792 265.1667 14.34217634435972 IRIDIUM 161 1 43478U 18047C 26209.14352939 .00000293 00000+0 81121-4 0 9991 2 43478 86.4447 71.3394 0002059 82.2507 277.8927 14.43281207431044 IRIDIUM 152 1 43479U 18047D 26209.12572006 .00000076 00000+0 19938-4 0 9995 2 43479 86.3921 71.2082 0002070 85.9688 274.1745 14.34217975428356 IRIDIUM 147 1 43480U 18047E 26209.13206370 .00000037 00000+0 63146-5 0 9994 2 43480 86.3923 71.2116 0002295 86.5425 273.6034 14.34217599428350 IRIDIUM 110 1 43481U 18047F 26209.13840572 .00000088 00000+0 24225-4 0 9993 2 43481 86.3925 71.3019 0001900 81.6527 278.4884 14.34217420428345 IRIDIUM 162 1 43482U 18047G 26209.13721110 .00000253 00000+0 69306-4 0 9993 2 43482 86.4445 71.2326 0002192 87.4126 272.7326 14.43283475431038 IRIDIUM 160 1 43569U 18061A 26209.08424266 .00000053 00000+0 11693-4 0 9995 2 43569 86.3937 39.6882 0002169 87.4701 272.6743 14.34217156419230 IRIDIUM 166 1 43570U 18061B 26209.03984634 .00000033 00000+0 46170-5 0 9999 2 43570 86.3935 39.6565 0002267 89.0210 271.1246 14.34217255419254 IRIDIUM 158 1 43571U 18061C 26209.07789911 .00000061 00000+0 14724-4 0 9995 2 43571 86.3938 39.6506 0002122 89.7248 270.4191 14.34217695419227 IRIDIUM 165 1 43572U 18061D 26209.17303970 .00000061 00000+0 14720-4 0 9990 2 43572 86.3937 39.6581 0002302 89.4011 270.7449 14.34217426419260 IRIDIUM 155 1 43573U 18061E 26209.06521345 .00000004 00000+0 -58121-5 0 9999 2 43573 86.3932 39.5701 0002089 91.3743 268.7692 14.34217473419219 IRIDIUM 154 1 43574U 18061F 26209.04618679 .00000050 00000+0 10722-4 0 9999 2 43574 86.3939 39.7139 0002309 88.2608 271.8852 14.34217539419265 IRIDIUM 163 1 43575U 18061G 26209.02715983 .00000066 00000+0 16402-4 0 9992 2 43575 86.3935 39.6356 0002104 88.8069 271.3368 14.34217257419233 IRIDIUM 156 1 43576U 18061H 26209.07155527 .00000083 00000+0 22522-4 0 9999 2 43576 86.3934 39.6244 0002203 92.8280 267.3168 14.34218108419238 IRIDIUM 164 1 43577U 18061J 26209.05253049 -.00000042 00000+0 -22175-4 0 9997 2 43577 86.3936 39.6734 0002223 87.7310 272.4140 14.34216804419276 IRIDIUM 159 1 43578U 18061K 26209.02081612 .00000064 00000+0 15734-4 0 9995 2 43578 86.3936 39.6226 0002097 88.6883 271.4553 14.34217512419237 IRIDIUM 180 1 43922U 19002A 26209.09007991 .00000034 00000+0 50815-5 0 9996 2 43922 86.4003 336.5024 0001996 92.1887 267.9538 14.34217713394858 IRIDIUM 176 1 43923U 19002B 26209.07565139 .00000792 00000+0 12165-3 0 9993 2 43923 86.6125 336.4456 0002337 92.4181 267.7304 14.72258440405265 IRIDIUM 168 1 43924U 19002C 26208.31628439 -.00000020 00000+0 -14315-4 0 9999 2 43924 86.4004 336.9037 0002072 92.0335 268.1098 14.34217266394725 IRIDIUM 173 1 43925U 19002D 26209.07105111 .00000067 00000+0 16859-4 0 9995 2 43925 86.4004 336.4755 0002190 93.9149 266.2297 14.34218375394814 IRIDIUM 169 1 43926U 19002E 26208.87280307 .00000298 00000+0 90827-4 0 9997 2 43926 86.4235 8.1796 0002260 104.1491 255.9958 14.38604451396079 IRIDIUM 172 1 43927U 19002F 26208.36702499 -.00000013 00000+0 -11637-4 0 9992 2 43927 86.4001 336.7778 0002079 92.5044 267.6390 14.34217364394722 IRIDIUM 175 1 43928U 19002G 26209.17132941 .00000284 00000+0 77958-4 0 9998 2 43928 86.4499 273.3899 0005583 90.1815 270.0026 14.43632735404894 IRIDIUM 171 1 43929U 19002H 26208.34799734 -.00000020 00000+0 -14346-4 0 9998 2 43929 86.4011 337.0964 0002179 95.7146 264.4299 14.34217489394715 IRIDIUM 170 1 43930U 19002J 26208.80992978 .00000838 00000+0 12895-3 0 9997 2 43930 86.6126 336.5589 0002157 91.2192 268.9272 14.72265157405238 IRIDIUM 167 1 43931U 19002K 26208.83003367 -.00000062 00000+0 -29362-4 0 9995 2 43931 86.4001 336.6067 0002355 98.3282 261.8181 14.34217356394783 IRIDIUM 181 1 56726U 23068S 26209.08012993 .00000112 00000+0 27353-4 0 9993 2 56726 86.4474 39.6872 0002262 83.6889 276.4570 14.43310306168337 IRIDIUM 177 1 56727U 23068T 26209.02303709 .00001176 00000+0 15193-3 0 9995 2 56727 86.1988 309.4071 0002334 98.0811 262.0675 14.80042647172400 IRIDIUM 174 1 56728U 23068U 26208.32171773 .00000837 00000+0 12879-3 0 9993 2 56728 86.6133 336.9141 0001958 97.3515 262.7925 14.72256387171925 IRIDIUM 178 1 56729U 23068V 26208.87691146 .00000695 00000+0 88419-4 0 9991 2 56729 86.6545 8.3549 0002335 93.5022 266.6467 14.80029104172385 IRIDIUM 179 1 56730U 23068W 26209.00676444 .00000527 00000+0 66229-4 0 9992 2 56730 86.6781 17.3998 0002452 94.8245 265.3256 14.80034844172400